EW0811 Weather Reports


time (UTC)temp
C
wind
direction
speed
KPH
gust
KPH
rain 1hr
cm
rain 24hr
cm
rain mn
cm
humidity
%
barometer
mb
20260509173216 19 203 14.5 19.3 0.00 0.00 0.00 63 1005.4
20260509172216 18 248 6.4 11.3 0.00 0.00 0.00 65 1005.5
20260509171216 19 203 3.2 9.7 0.00 0.00 0.00 64 1005.6
20260509170216 18 248 6.4 12.9 0.00 0.00 0.00 63 1005.5
20260509165216 17 248 6.4 12.9 0.00 0.00 0.00 65 1005.7
20260509164216 18 203 8.0 17.7 0.00 0.00 0.00 65 1005.8
20260509163239 17 203 6.4 11.3 0.00 0.00 0.00 71 1006.0
20260509162216 17 248 9.7 16.1 0.00 0.00 0.00 66 1006.0
20260509161236 17 225 6.4 9.7 0.00 0.00 0.00 66 1006.0
20260509160216 17 248 9.7 16.1 0.00 0.00 0.00 66 1005.9
20260509155238 17 203 8.0 9.7 0.00 0.00 0.00 69 1006.1
20260509154216 17 180 3.2 4.8 0.00 0.00 0.00 72 1006.2
20260509153217 17 158 4.8 8.0 0.00 0.00 0.00 72 1006.4
20260509152236 16 270 3.2 6.4 0.00 0.00 0.00 74 1006.5
20260509151216 16 158 6.4 9.7 0.00 0.00 0.00 75 1006.6
20260509150216 16 203 8.0 12.9 0.00 0.00 0.00 76 1006.5
20260509145216 16 203 9.7 12.9 0.00 0.00 0.00 72 1006.5
20260509144216 16 203 4.8 9.7 0.00 0.00 0.00 76 1006.6
20260509143216 15 158 4.8 6.4 0.00 0.00 0.00 78 1006.7
20260509142216 15 203 6.4 11.3 0.00 0.00 0.00 76 1006.7
20260509141217 15 158 3.2 6.4 0.00 0.00 0.00 80 1006.8
20260509140221 15 225 4.8 8.0 0.00 0.00 0.00 80 1006.9
20260509135236 14 180 3.2 4.8 0.00 0.00 0.00 81 1007.0
20260509134236 14 225 6.4 9.7 0.00 0.00 0.00 78 1007.1
20260509133216 14 248 3.2 4.8 0.00 0.00 0.00 82 1007.1
20260509132216 13 203 4.8 6.4 0.00 0.00 0.00 83 1007.2
20260509131216 13 158 4.8 6.4 0.00 0.00 0.00 84 1007.3
20260509130236 13 203 8.0 11.3 0.00 0.00 0.00 83 1007.2
20260509125216 12 158 6.4 9.7 0.00 0.03 0.00 86 1007.2
20260509124216 12 180 3.2 6.4 0.00 0.03 0.00 85 1007.3
20260509123216 11 203 3.2 3.2 0.00 0.03 0.00 86 1007.5
20260509122216 11 203 1.6 3.2 0.00 0.03 0.00 87 1007.5
20260509121216 11 180 1.6 3.2 0.00 0.03 0.00 87 1007.6
20260509120215 10 225 4.8 6.4 0.00 0.03 0.00 88 1007.6
20260509115215 10 180 4.8 9.7 0.00 0.18 0.00 90 1007.4
20260509114217 9 203 3.2 4.8 0.00 0.18 0.00 91 1007.6
20260509113223 8 158 4.8 6.4 0.00 0.18 0.00 94 1007.4
20260509112217 7 158 3.2 4.8 0.00 0.18 0.00 97 1007.5
20260509111215 6 158 3.2 4.8 0.00 0.18 0.00 97 1007.6
20260509110235 5 0.0 0.0 0.00 0.18 0.00 96 1007.6
20260509105237 5 0.0 0.0 0.00 0.18 0.00 95 1007.8
20260509104216 5 0.0 0.0 0.00 0.18 0.00 95 1007.8
20260509103215 4 0.0 1.6 0.00 0.18 0.00 95 1007.7
20260509102237 4 0.0 0.0 0.00 0.18 0.00 94 1007.7
20260509101215 4 0.0 0.0 0.00 0.18 0.00 94 1007.5
20260509100215 4 0.0 1.6 0.00 0.18 0.00 93 1007.5
20260509095215 4 0.0 0.0 0.00 0.18 0.00 92 1007.5
20260509094215 4 0.0 0.0 0.00 0.18 0.00 90 1007.6
20260509093237 4 0.0 0.0 0.00 0.18 0.00 90 1007.6
20260509092215 5 0.0 0.0 0.00 0.18 0.00 90 1007.5
20260509091215 4 135 3.2 4.8 0.00 0.18 0.00 90 1007.5
20260509090215 4 0.0 1.6 0.00 0.18 0.00 91 1007.6
20260509085215 3 0.0 1.6 0.00 0.18 0.00 92 1007.5
20260509084235 3 0.0 1.6 0.00 0.18 0.00 92 1007.6
20260509083215 3 158 1.6 3.2 0.00 0.18 0.00 92 1007.6
20260509082215 2 248 1.6 3.2 0.00 0.18 0.00 92 1007.6
20260509081235 2 248 1.6 3.2 0.00 0.18 0.00 92 1007.7
20260509080235 2 0.0 0.0 0.00 0.18 0.00 91 1007.8
20260509075215 2 0.0 1.6 0.00 0.18 0.00 90 1007.9
20260509074215 2 0.0 0.0 0.00 0.18 0.00 89 1008.0
20260509073217 3 0.0 0.0 0.00 0.18 0.00 88 1008.1
20260509072215 3 0.0 0.0 0.00 0.18 0.00 87 1008.1
20260509071215 3 0.0 1.6 0.00 0.18 0.00 85 1008.3
20260509070215 4 0.0 1.6 0.00 0.18 0.00 82 1008.3
20260509065215 5 0.0 0.0 0.00 0.18 0.00 79 1008.4
20260509064215 6 0.0 1.6 0.00 0.18 0.00 78 1008.5
20260509063215 6 248 1.6 3.2 0.00 0.18 0.00 72 1008.7
20260509062215 5 248 6.4 11.3 0.00 0.18 0.00 74 1008.8
20260509061215 5 248 3.2 4.8 0.00 0.18 0.00 80 1008.9
20260509060215 5 158 3.2 6.4 0.00 0.18 0.00 78 1009.0
20260509055215 5 158 3.2 4.8 0.00 0.18 0.00 75 1009.0
20260509054235 5 180 3.2 6.4 0.00 0.18 0.00 78 1009.2
20260509053215 5 225 1.6 3.2 0.00 0.18 0.00 82 1009.2
20260509052215 5 0.0 1.6 0.00 0.18 0.00 79 1009.3
20260509051217 5 225 1.6 3.2 0.00 0.18 0.00 78 1009.4
20260509050215 5 203 1.6 1.6 0.00 0.18 0.00 79 1009.5
20260509045215 5 203 1.6 3.2 0.00 0.18 0.00 78 1009.7
20260509044215 5 203 3.2 6.4 0.00 0.18 0.00 79 1009.7
20260509043237 4 203 1.6 4.8 0.00 0.18 0.00 80 1009.7
20260509042215 3 158 3.2 6.4 0.00 0.18 0.00 82 1009.8
20260509041215 3 158 3.2 6.4 0.00 0.18 0.00 85 1009.8
20260509040216 3 203 1.6 6.4 0.00 0.18 0.00 88 1009.8
20260509035217 3 203 1.6 1.6 0.00 0.18 0.18 89 1009.9
20260509034237 3 203 1.6 3.2 0.00 0.18 0.18 90 1010.0
20260509033217 3 0.0 0.0 0.00 0.18 0.18 90 1009.9
20260509032217 2 203 1.6 1.6 0.00 0.18 0.18 91 1010.0
20260509031217 3 0.0 1.6 0.00 0.18 0.18 91 1010.1
20260509030238 3 0.0 0.0 0.00 0.18 0.18 90 1010.2
20260509025217 3 0.0 0.0 0.00 0.25 0.18 91 1010.1
20260509024218 3 0.0 0.0 0.00 0.25 0.18 91 1010.3
20260509023238 3 0.0 0.0 0.00 0.25 0.18 90 1010.2
20260509022257 4 0.0 1.6 0.00 0.25 0.18 90 1010.0
20260509021238 4 0.0 0.0 0.00 0.25 0.18 89 1010.0
20260509020216 4 0.0 1.6 0.00 0.25 0.18 89 1010.0
20260509015217 5 0.0 0.0 0.00 0.28 0.18 87 1010.0
20260509014217 5 0.0 0.0 0.00 0.28 0.18 85 1010.0
20260509013217 5 0.0 0.0 0.00 0.28 0.18 85 1010.0
20260509012220 6 0.0 0.0 0.00 0.28 0.18 85 1010.0
20260509011237 6 0.0 0.0 0.00 0.28 0.18 83 1010.0
20260509010218 7 0.0 0.0 0.00 0.28 0.18 81 1010.0
20260509005217 7 203 1.6 1.6 0.00 0.51 0.18 79 1009.9
20260509004217 8 0.0 0.0 0.00 0.51 0.18 77 1009.9
20260509003217 9 0.0 0.0 0.00 0.51 0.18 71 1009.7
20260509002217 10 203 1.6 1.6 0.00 0.51 0.18 66 1009.6
20260509001217 11 0.0 0.0 0.00 0.51 0.18 63 1009.6
20260509000219 11 203 3.2 4.8 0.00 0.51 0.18 60 1009.5
20260508235217 11 203 1.6 1.6 0.00 0.51 0.18 59 1009.5
20260508234217 12 0.0 1.6 0.00 0.51 0.18 56 1009.5
20260508233216 12 225 1.6 4.8 0.00 0.51 0.18 55 1009.6
20260508232238 13 225 1.6 1.6 0.00 0.51 0.18 55 1009.5
20260508231218 13 270 3.2 6.4 0.00 0.51 0.18 53 1009.5
20260508230216 13 203 3.2 6.4 0.00 0.51 0.18 49 1009.5
20260508225216 13 203 3.2 4.8 0.00 0.51 0.18 52 1009.6
20260508224218 13 203 3.2 6.4 0.00 0.51 0.18 51 1009.6
20260508223216 14 248 3.2 4.8 0.00 0.51 0.18 54 1009.6
20260508222218 13 248 3.2 6.4 0.00 0.51 0.18 52 1009.6
20260508221216 15 225 3.2 6.4 0.00 0.51 0.18 52 1009.6
20260508220216 14 270 4.8 9.7 0.00 0.51 0.18 52 1009.7
20260508215216 15 270 4.8 8.0 0.00 0.51 0.18 48 1009.8
20260508214217 15 68 3.2 6.4 0.00 0.51 0.18 46 1009.8
20260508213257 14 225 6.4 12.9 0.00 0.51 0.18 53 1009.8
20260508212216 15 248 4.8 9.7 0.00 0.51 0.18 52 1009.7
20260508211216 15 203 8.0 11.3 0.00 0.51 0.18 46 1009.7
20260508210216 15 225 4.8 9.7 0.00 0.51 0.18 50 1009.8
20260508205216 14 270 3.2 6.4 0.00 0.51 0.18 51 1009.7
20260508204236 14 315 3.2 8.0 0.00 0.51 0.18 59 1009.8
20260508203218 14 338 1.6 4.8 0.00 0.51 0.18 60 1009.9
20260508202216 15 315 1.6 3.2 0.00 0.51 0.18 54 1010.0
20260508201216 15 248 1.6 3.2 0.00 0.51 0.18 44 1010.1
20260508200216 16 270 3.2 4.8 0.00 0.51 0.18 51 1010.2
20260508195236 15 270 1.6 4.8 0.00 0.51 0.18 55 1010.3
20260508194216 15 158 3.2 6.4 0.00 0.51 0.18 43 1010.4
20260508193218 15 293 3.2 8.0 0.00 0.51 0.18 41 1010.6
20260508192216 15 248 4.8 8.0 0.00 0.51 0.18 46 1010.7
20260508191216 15 225 9.7 14.5 0.00 0.51 0.18 46 1010.8
20260508190216 15 248 6.4 8.0 0.00 0.51 0.18 43 1011.0
20260508185238 16 315 3.2 4.8 0.00 0.51 0.18 52 1011.2
20260508184216 15 338 1.6 4.8 0.00 0.51 0.18 55 1011.2
20260508183218 15 248 8.0 9.7 0.00 0.51 0.18 46 1011.2
20260508182218 15 0 4.8 8.0 0.00 0.51 0.18 57 1011.2
20260508181216 14 225 4.8 11.3 0.00 0.51 0.18 60 1011.2
20260508180216 14 203 8.0 12.9 0.00 0.51 0.18 56 1011.2
20260508175258 14 293 4.8 8.0 0.00 0.51 0.18 59 1011.4
20260508174216 14 338 3.2 4.8 0.00 0.51 0.18 62 1011.5